{"data":{"norad_id":59371,"intl_designator":"2024-061A","name":"RESURS-P 4","alt_names":[],"object_type":"PAYLOAD","status":"ACTIVE","operator":null,"country":"CIS","launch_date":"2024-03-31","launch_site_code":"TYMSC","launch_vehicle":null,"mission":null,"orbit_class":"UNKNOWN","rcs_meters":null,"size_class":null,"mass_kg":null,"dimensions":null,"purposes":["earth_obs"],"wikipedia_slug":null,"has_3d_model":false,"image_url":null,"decayed_at":null,"tle_current":{"epoch":"2026-09-19T22:46:27.474240Z","epoch_age_seconds":65950,"freshness":"FRESH","line1":"1 59371U 24061A   26262.94892910  .00002132  00000+0  70141-4 0  9992","line2":"2 59371  97.2829 209.2646 0001642 130.7764 229.3621 15.32603103138274","mean_motion":15.32603103,"eccentricity":0.0001642,"inclination_deg":97.2829,"raan_deg":209.2646,"arg_perigee_deg":130.7764,"mean_anomaly_deg":229.3621,"bstar":7.0141e-5,"rev_number":13827,"period_min":93.957789670481,"perigee_km":466.9250704456,"apogee_km":469.17335799835,"semimajor_km":6846.186214222,"source":"CELESTRAK","updated_at":"2026-09-20T09:00:33.978919Z"}}}